Time,TemperatureF,DewpointF,PressureIn,WindDirection,WindDirectionDegrees,WindSpeedMPH,WindSpeedGustMPH,Humidity,HourlyPrecipIn,Conditions,Clouds,dailyrainin,SolarRadiationWatts/m^2,SoftwareType,DateUTC
2013-06-03 00:03:00,62.0,62.0,-100.00,West,272,2.0,6.0,100,0.00,,,0.18,0.000000,,2013-06-03 04:03:00,
2013-06-03 00:13:00,62.0,62.0,-100.00,West,272,2.0,6.0,100,0.00,,,0.18,0.000000,,2013-06-03 04:13:00,
2013-06-03 00:33:00,62.0,62.0,-100.00,SSW,200,1.0,6.0,100,0.03,,,0.21,0.000000,,2013-06-03 04:33:00,
2013-06-03 00:42:00,62.0,62.0,-100.00,SSW,200,1.0,6.0,100,0.03,,,0.21,0.000000,,2013-06-03 04:42:00,
2013-06-03 00:53:00,62.0,62.0,-100.00,SSW,200,1.0,6.0,100,0.03,,,0.21,0.000000,,2013-06-03 04:53:00,
2013-06-03 01:02:00,62.0,62.0,-100.00,SSW,200,1.0,6.0,100,0.03,,,0.21,0.000000,,2013-06-03 05:02:00,
2013-06-03 01:12:00,62.0,62.0,-100.00,SSW,200,1.0,6.0,100,0.03,,,0.21,0.000000,,2013-06-03 05:12:00,
2013-06-03 01:32:00,61.0,61.0,-100.00,West,269,2.0,4.0,100,0.00,,,0.21,0.000000,,2013-06-03 05:32:00,
2013-06-03 01:43:00,61.0,61.0,-100.00,West,269,2.0,4.0,100,0.00,,,0.21,0.000000,,2013-06-03 05:43:00,
2013-06-03 01:52:00,61.0,61.0,-100.00,West,269,2.0,4.0,100,0.00,,,0.21,0.000000,,2013-06-03 05:52:00,
2013-06-03 02:02:00,61.0,61.0,-100.00,West,269,2.0,4.0,100,0.00,,,0.21,0.000000,,2013-06-03 06:02:00,
2013-06-03 02:12:00,61.0,61.0,-100.00,West,269,2.0,4.0,100,0.00,,,0.21,0.000000,,2013-06-03 06:12:00,
2013-06-03 02:32:00,62.0,62.0,-100.00,WNW,296,1.0,5.0,100,0.00,,,0.21,0.000000,,2013-06-03 06:32:00,
2013-06-03 02:42:00,62.0,62.0,-100.00,WNW,296,1.0,5.0,100,0.00,,,0.21,0.000000,,2013-06-03 06:42:00,
2013-06-03 02:53:00,62.0,62.0,-100.00,WNW,296,1.0,5.0,100,0.00,,,0.21,0.000000,,2013-06-03 06:53:00,
2013-06-03 03:02:00,62.0,62.0,-100.00,WNW,296,1.0,5.0,100,0.00,,,0.21,0.000000,,2013-06-03 07:02:00,
2013-06-03 03:12:00,62.0,62.0,-100.00,WNW,296,1.0,5.0,100,0.00,,,0.21,0.000000,,2013-06-03 07:12:00,
2013-06-03 03:32:00,61.0,61.0,-100.00,NW,306,1.0,2.0,100,0.00,,,0.21,0.000000,,2013-06-03 07:32:00,
2013-06-03 03:42:00,61.0,61.0,-100.00,NW,306,1.0,2.0,100,0.00,,,0.21,0.000000,,2013-06-03 07:42:00,
2013-06-03 03:52:00,61.0,61.0,-100.00,NW,306,1.0,2.0,100,0.00,,,0.21,0.000000,,2013-06-03 07:52:00,
2013-06-03 04:02:00,61.0,61.0,-100.00,NW,306,1.0,2.0,100,0.00,,,0.21,0.000000,,2013-06-03 08:02:00,
2013-06-03 04:12:00,61.0,61.0,-100.00,NW,306,1.0,2.0,100,0.00,,,0.21,0.000000,,2013-06-03 08:12:00,
2013-06-03 04:42:00,61.0,61.0,-100.00,SW,234,1.0,3.0,100,0.00,,,0.21,0.000000,,2013-06-03 08:42:00,
2013-06-03 04:52:00,61.0,61.0,-100.00,SW,234,1.0,3.0,100,0.00,,,0.21,0.000000,,2013-06-03 08:52:00,
2013-06-03 05:02:00,61.0,61.0,-100.00,SW,234,1.0,3.0,100,0.00,,,0.21,0.000000,,2013-06-03 09:02:00,
2013-06-03 05:12:00,61.0,61.0,-100.00,SW,234,1.0,3.0,100,0.00,,,0.21,0.000000,,2013-06-03 09:12:00,
2013-06-03 05:43:00,61.0,61.0,-100.00,NNW,343,1.0,4.0,100,0.00,,,0.21,0.000000,,2013-06-03 09:43:00,
2013-06-03 05:53:00,61.0,61.0,-100.00,NNW,343,1.0,4.0,100,0.00,,,0.21,0.000000,,2013-06-03 09:53:00,
2013-06-03 06:03:00,61.0,61.0,-100.00,NNW,343,1.0,4.0,100,0.00,,,0.21,0.000000,,2013-06-03 10:03:00,
2013-06-03 06:13:00,61.0,61.0,-100.00,NNW,343,1.0,4.0,100,0.00,,,0.21,0.000000,,2013-06-03 10:13:00,
2013-06-03 06:33:00,61.0,61.0,-100.00,NNE,33,1.0,3.0,100,0.00,,,0.21,0.000000,,2013-06-03 10:33:00,
2013-06-03 06:42:00,61.0,61.0,-100.00,NNE,33,1.0,3.0,100,0.00,,,0.21,0.000000,,2013-06-03 10:42:00,
2013-06-03 06:53:00,61.0,61.0,-100.00,NNE,33,1.0,3.0,100,0.00,,,0.21,0.000000,,2013-06-03 10:53:00,
2013-06-03 07:02:00,61.0,61.0,-100.00,NNE,33,1.0,3.0,100,0.00,,,0.21,0.000000,,2013-06-03 11:02:00,
2013-06-03 07:12:00,61.0,61.0,-100.00,NNE,33,1.0,3.0,100,0.00,,,0.21,0.000000,,2013-06-03 11:12:00,
2013-06-03 07:32:00,61.0,61.0,-100.00,NNW,344,0.0,2.0,100,0.00,,,0.21,25.000000,,2013-06-03 11:32:00,
2013-06-03 07:42:00,61.0,61.0,-100.00,NNW,344,0.0,2.0,100,0.00,,,0.21,25.000000,,2013-06-03 11:42:00,
2013-06-03 07:52:00,61.0,61.0,-100.00,NNW,344,0.0,2.0,100,0.00,,,0.21,25.000000,,2013-06-03 11:52:00,
2013-06-03 08:02:00,61.0,61.0,-100.00,NNW,344,0.0,2.0,100,0.00,,,0.21,25.000000,,2013-06-03 12:02:00,
2013-06-03 08:12:00,61.0,61.0,-100.00,NNW,344,0.0,2.0,100,0.00,,,0.21,25.000000,,2013-06-03 12:12:00,
2013-06-03 08:32:00,62.0,62.0,-100.00,NNE,22,0.0,2.0,100,0.00,,,0.21,57.000000,,2013-06-03 12:32:00,
2013-06-03 08:42:00,62.0,62.0,-100.00,NNE,22,0.0,2.0,100,0.00,,,0.21,57.000000,,2013-06-03 12:42:00,
2013-06-03 08:52:00,62.0,62.0,-100.00,NNE,22,0.0,2.0,100,0.00,,,0.21,57.000000,,2013-06-03 12:52:00,
2013-06-03 09:02:00,62.0,62.0,-100.00,NNE,22,0.0,2.0,100,0.00,,,0.21,57.000000,,2013-06-03 13:02:00,
2013-06-03 09:12:00,62.0,62.0,-100.00,NNE,22,0.0,2.0,100,0.00,,,0.21,57.000000,,2013-06-03 13:12:00,
2013-06-03 09:43:00,63.0,62.0,-100.00,West,275,2.0,4.0,95,0.00,,,0.21,132.000000,,2013-06-03 13:43:00,
2013-06-03 09:53:00,63.0,62.0,-100.00,West,275,2.0,4.0,95,0.00,,,0.21,132.000000,,2013-06-03 13:53:00,
2013-06-03 10:02:00,63.0,62.0,-100.00,West,275,2.0,4.0,95,0.00,,,0.21,132.000000,,2013-06-03 14:02:00,
2013-06-03 10:13:00,63.0,62.0,-100.00,West,275,2.0,4.0,95,0.00,,,0.21,132.000000,,2013-06-03 14:13:00,
2013-06-03 10:33:00,69.0,63.0,-100.00,WNW,297,2.0,6.0,81,0.00,,,0.21,362.000000,,2013-06-03 14:33:00,
2013-06-03 10:42:00,69.0,63.0,-100.00,WNW,297,2.0,6.0,81,0.00,,,0.21,362.000000,,2013-06-03 14:42:00,
2013-06-03 10:52:00,69.0,63.0,-100.00,WNW,297,2.0,6.0,81,0.00,,,0.21,362.000000,,2013-06-03 14:52:00,
2013-06-03 11:02:00,69.0,63.0,-100.00,WNW,297,2.0,6.0,81,0.00,,,0.21,362.000000,,2013-06-03 15:02:00,
2013-06-03 11:12:00,69.0,63.0,-100.00,WNW,297,2.0,6.0,81,0.00,,,0.21,362.000000,,2013-06-03 15:12:00,
2013-06-03 11:43:00,71.0,65.0,-100.00,NW,316,3.0,7.0,80,0.00,,,0.21,522.000000,,2013-06-03 15:43:00,
2013-06-03 11:53:00,71.0,65.0,-100.00,NW,316,3.0,7.0,80,0.00,,,0.21,522.000000,,2013-06-03 15:53:00,
2013-06-03 12:03:00,71.0,65.0,-100.00,NW,316,3.0,7.0,80,0.00,,,0.21,522.000000,,2013-06-03 16:03:00,
2013-06-03 12:13:00,71.0,65.0,-100.00,NW,316,3.0,7.0,80,0.00,,,0.21,522.000000,,2013-06-03 16:13:00,
2013-06-03 12:33:00,62.0,58.0,-100.00,North,355,2.0,8.0,88,0.12,,,0.31,107.000000,,2013-06-03 16:33:00,
2013-06-03 12:42:00,62.0,58.0,-100.00,North,355,2.0,8.0,88,0.12,,,0.31,107.000000,,2013-06-03 16:42:00,
2013-06-03 12:53:00,62.0,58.0,-100.00,North,355,2.0,8.0,88,0.12,,,0.31,107.000000,,2013-06-03 16:53:00,
2013-06-03 13:02:00,62.0,58.0,-100.00,North,355,2.0,8.0,88,0.12,,,0.31,107.000000,,2013-06-03 17:02:00,
2013-06-03 13:12:00,62.0,58.0,-100.00,North,355,2.0,8.0,88,0.12,,,0.31,107.000000,,2013-06-03 17:12:00,
2013-06-03 13:33:00,65.0,63.0,-100.00,WNW,285,4.0,9.0,93,0.00,,,0.29,284.000000,,2013-06-03 17:33:00,
2013-06-03 13:42:00,65.0,63.0,-100.00,WNW,285,4.0,9.0,93,0.00,,,0.29,284.000000,,2013-06-03 17:42:00,
2013-06-03 13:52:00,65.0,63.0,-100.00,WNW,285,4.0,9.0,93,0.00,,,0.29,284.000000,,2013-06-03 17:52:00,
2013-06-03 14:03:00,65.0,63.0,-100.00,WNW,285,4.0,9.0,93,0.00,,,0.29,284.000000,,2013-06-03 18:03:00,
2013-06-03 14:12:00,65.0,63.0,-100.00,WNW,285,4.0,9.0,93,0.00,,,0.29,284.000000,,2013-06-03 18:12:00,
2013-06-03 14:32:00,68.0,62.0,-100.00,NW,315,2.0,6.0,82,0.00,,,0.29,382.000000,,2013-06-03 18:32:00,
2013-06-03 14:43:00,68.0,62.0,-100.00,NW,315,2.0,6.0,82,0.00,,,0.29,382.000000,,2013-06-03 18:43:00,
2013-06-03 14:53:00,68.0,62.0,-100.00,NW,315,2.0,6.0,82,0.00,,,0.29,382.000000,,2013-06-03 18:53:00,
2013-06-03 15:03:00,68.0,62.0,-100.00,NW,315,2.0,6.0,82,0.00,,,0.29,382.000000,,2013-06-03 19:03:00,
2013-06-03 15:12:00,68.0,62.0,-100.00,NW,315,2.0,6.0,82,0.00,,,0.29,382.000000,,2013-06-03 19:12:00,
2013-06-03 15:33:00,67.0,61.0,-100.00,NW,314,3.0,9.0,81,0.00,,,0.29,209.000000,,2013-06-03 19:33:00,
2013-06-03 15:42:00,67.0,61.0,-100.00,NW,314,3.0,9.0,81,0.00,,,0.29,209.000000,,2013-06-03 19:42:00,
2013-06-03 15:53:00,67.0,61.0,-100.00,NW,314,3.0,9.0,81,0.00,,,0.29,209.000000,,2013-06-03 19:53:00,
2013-06-03 16:02:00,67.0,61.0,-100.00,NW,314,3.0,9.0,81,0.00,,,0.29,209.000000,,2013-06-03 20:02:00,
2013-06-03 16:12:00,67.0,61.0,-100.00,NW,314,3.0,9.0,81,0.00,,,0.29,209.000000,,2013-06-03 20:12:00,
2013-06-03 16:33:00,67.0,56.0,-100.00,NNW,334,3.0,10.0,69,0.00,,,0.25,374.000000,,2013-06-03 20:33:00,
2013-06-03 16:43:00,67.0,56.0,-100.00,NNW,334,3.0,10.0,69,0.00,,,0.25,374.000000,,2013-06-03 20:43:00,
2013-06-03 16:52:00,67.0,56.0,-100.00,NNW,334,3.0,10.0,69,0.00,,,0.25,374.000000,,2013-06-03 20:52:00,
2013-06-03 17:02:00,67.0,56.0,-100.00,NNW,334,3.0,10.0,69,0.00,,,0.25,374.000000,,2013-06-03 21:02:00,
2013-06-03 17:12:00,67.0,56.0,-100.00,NNW,334,3.0,10.0,69,0.00,,,0.25,374.000000,,2013-06-03 21:12:00,
2013-06-03 17:43:00,72.0,62.0,-100.00,NW,319,4.0,11.0,70,0.00,,,0.25,455.000000,,2013-06-03 21:43:00,
2013-06-03 17:53:00,72.0,62.0,-100.00,NW,319,4.0,11.0,70,0.00,,,0.25,455.000000,,2013-06-03 21:53:00,
2013-06-03 18:03:00,72.0,62.0,-100.00,NW,319,4.0,11.0,70,0.00,,,0.25,455.000000,,2013-06-03 22:03:00,
2013-06-03 18:12:00,72.0,62.0,-100.00,NW,319,4.0,11.0,70,0.00,,,0.25,455.000000,,2013-06-03 22:12:00,
2013-06-03 18:33:00,69.0,55.0,-100.00,NNW,336,3.0,9.0,62,0.00,,,0.25,393.000000,,2013-06-03 22:33:00,
2013-06-03 18:42:00,69.0,55.0,-100.00,NNW,336,3.0,9.0,62,0.00,,,0.25,393.000000,,2013-06-03 22:42:00,
2013-06-03 18:53:00,69.0,55.0,-100.00,NNW,336,3.0,9.0,62,0.00,,,0.25,393.000000,,2013-06-03 22:53:00,
2013-06-03 19:02:00,69.0,55.0,-100.00,NNW,336,3.0,9.0,62,0.00,,,0.25,393.000000,,2013-06-03 23:02:00,
2013-06-03 19:12:00,69.0,55.0,-100.00,NNW,336,3.0,9.0,62,0.00,,,0.25,393.000000,,2013-06-03 23:12:00,
2013-06-03 19:32:00,70.0,55.0,-100.00,NNW,338,3.0,7.0,58,0.00,,,0.25,267.000000,,2013-06-03 23:32:00,
2013-06-03 19:42:00,70.0,55.0,-100.00,NNW,338,3.0,7.0,58,0.00,,,0.25,267.000000,,2013-06-03 23:42:00,
2013-06-03 19:52:00,70.0,55.0,-100.00,NNW,338,3.0,7.0,58,0.00,,,0.25,267.000000,,2013-06-03 23:52:00,
2013-06-03 20:02:00,70.0,55.0,-100.00,NNW,338,3.0,7.0,58,0.00,,,0.25,267.000000,,2013-06-04 00:02:00,
2013-06-03 20:12:00,70.0,55.0,-100.00,NNW,338,3.0,7.0,58,0.00,,,0.25,267.000000,,2013-06-04 00:12:00,
2013-06-03 20:32:00,63.0,53.0,-100.00,NNW,347,2.0,6.0,70,0.00,,,-99.99,70.000000,,2013-06-04 00:32:00,
2013-06-03 20:42:00,63.0,53.0,-100.00,NNW,347,2.0,6.0,70,0.00,,,-99.99,70.000000,,2013-06-04 00:42:00,
2013-06-03 20:52:00,63.0,53.0,-100.00,NNW,347,2.0,6.0,70,0.00,,,-99.99,70.000000,,2013-06-04 00:52:00,
2013-06-03 21:02:00,63.0,53.0,-100.00,NNW,347,2.0,6.0,70,0.00,,,-99.99,70.000000,,2013-06-04 01:02:00,
2013-06-03 21:12:00,63.0,53.0,-100.00,NNW,347,2.0,6.0,70,0.00,,,-99.99,70.000000,,2013-06-04 01:12:00,
2013-06-03 21:32:00,60.0,54.0,-100.00,NW,305,2.0,3.0,81,0.00,,,0.20,5.000000,,2013-06-04 01:32:00,
2013-06-03 21:42:00,60.0,54.0,-100.00,NW,305,2.0,3.0,81,0.00,,,0.20,5.000000,,2013-06-04 01:42:00,
2013-06-03 21:53:00,60.0,54.0,-100.00,NW,305,2.0,3.0,81,0.00,,,0.20,5.000000,,2013-06-04 01:53:00,
2013-06-03 22:03:00,60.0,54.0,-100.00,NW,305,2.0,3.0,81,0.00,,,0.20,5.000000,,2013-06-04 02:03:00,
2013-06-03 22:12:00,60.0,54.0,-100.00,NW,305,2.0,3.0,81,0.00,,,0.20,5.000000,,2013-06-04 02:12:00,
2013-06-03 22:32:00,59.0,54.0,-100.00,NW,308,1.0,5.0,85,0.00,,,0.15,0.000000,,2013-06-04 02:32:00,
2013-06-03 22:42:00,59.0,54.0,-100.00,NW,308,1.0,5.0,85,0.00,,,0.15,0.000000,,2013-06-04 02:42:00,
2013-06-03 22:52:00,59.0,54.0,-100.00,NW,308,1.0,5.0,85,0.00,,,0.15,0.000000,,2013-06-04 02:52:00,
2013-06-03 23:02:00,59.0,54.0,-100.00,NW,308,1.0,5.0,85,0.00,,,0.15,0.000000,,2013-06-04 03:02:00,
2013-06-03 23:12:00,59.0,54.0,-100.00,NW,308,1.0,5.0,85,0.00,,,0.15,0.000000,,2013-06-04 03:12:00,
2013-06-03 23:33:00,57.0,55.0,-100.00,North,353,0.0,2.0,93,0.00,,,0.15,0.000000,,2013-06-04 03:33:00,
2013-06-03 23:43:00,57.0,55.0,-100.00,North,353,0.0,2.0,93,0.00,,,0.15,0.000000,,2013-06-04 03:43:00,
2013-06-03 23:54:00,57.0,55.0,-100.00,North,353,0.0,2.0,93,0.00,,,0.15,0.000000,,2013-06-04 03:54:00,